Weather History for Craig, CO

Change the Weather History Date:

Tuesday, March 19, 2013

  Actual Average Record
Temperature  
Mean Temperature 34 °F 34 °F  
Max Temperature 45 °F 47 °F 70 °F (2004)
Min Temperature 22 °F 21 °F 1 °F (2002)
Degree Days  
Heating Degree Days 31 31  
Month to date heating degree days 650 670  
Since 1 July heating degree days 6969 6996  
Cooling Degree Days 0 0  
Month to date cooling degree days 0 0  
Year to date cooling degree days 0 0  
Moisture  
Dew Point 11 °F    
Average Humidity 45    
Maximum Humidity 74    
Minimum Humidity 16    
Precipitation  
Precipitation 0.00 in 0.04 in 0.04 in (2012)
Month to date precipitation 0.45 0.70  
Year to date precipitation 1.49 2.40  
Sea Level Pressure  
Sea Level Pressure 30.25 in    
Wind  
Wind Speed 5 mph (SW)    
Max Wind Speed 18 mph    
Max Gust Speed 22 mph    
Visibility 10 miles    
Events      
T = Trace of Precipitation, MM = Missing Value Source: NWS Daily Summary

Daily Weather History Graph

Daily Weather History Graph

Search for Another Location

Airport:

Trip Planner

Search our weather history database for the weather conditions in past years. The results will help you decide how hot, cold, wet, or windy it might be!

Date:

Astronomy

Mar. 19, 2013 Rise Set
Actual Time 7:14 AM MDT 7:21 PM MDT
Civil Twilight 6:47 AM MDT 7:48 PM MDT
Nautical Twilight 6:15 AM MDT 8:20 PM MDT
Astronomical Twilight 5:43 AM MDT 8:53 PM MDT
Moon 12:06 PM MDT (3/19) 2:11 AM MDT (3/19)
Length of Visible Light 13h 01m
Length of Day
12h 06m
Waxing Crescent, 50% of the Moon is Illuminated
Mar 19
Waxing Crescent
Mar 27
Full
Apr 2
Last Quarter
Apr 10
New
Apr 18
First Quarter

Hourly Weather History & Observations

Time (MDT) Temp. Windchill Dew Point Humidity Pressure Visibility Wind Dir Wind Speed Gust Speed Precip Events Conditions
12:53 AM 26.1 °F 21.9 °F 16.0 °F 66% 30.07 in 10.0 mi East 3.5 mph - N/A   Clear
1:53 AM 27.0 °F - 14.0 °F 58% 30.07 in 10.0 mi Calm Calm - N/A   Clear
2:53 AM 24.1 °F 13.7 °F 14.0 °F 65% 30.12 in 10.0 mi SW 10.4 mph - N/A   Clear
3:53 AM 21.9 °F 14.5 °F 14.0 °F 72% 30.14 in 10.0 mi ENE 5.8 mph - N/A   Clear
4:53 AM 23.0 °F 14.7 °F 14.0 °F 68% 30.16 in 10.0 mi NE 6.9 mph - N/A   Clear
5:53 AM 23.0 °F - 14.0 °F 68% 30.19 in 10.0 mi Calm Calm - N/A   Clear
6:53 AM 21.9 °F 17.2 °F 14.0 °F 72% 30.23 in 10.0 mi ENE 3.5 mph - N/A   Clear
7:53 AM 23.0 °F - 14.0 °F 68% 30.26 in 10.0 mi Calm Calm - N/A   Clear
8:53 AM 28.9 °F - 12.0 °F 49% 30.28 in 10.0 mi Calm Calm - N/A   Clear
9:53 AM 30.0 °F 22.4 °F 12.9 °F 49% 30.30 in 10.0 mi East 8.1 mph - N/A   Clear
10:53 AM 34.0 °F 29.8 °F 5.0 °F 30% 30.28 in 10.0 mi SE 4.6 mph - N/A   Clear
11:53 AM 35.1 °F - 3.9 °F 27% 30.30 in 10.0 mi Calm Calm - N/A   Clear
12:53 PM 39.9 °F 33.4 °F 7.0 °F 26% 30.29 in 10.0 mi West 10.4 mph - N/A   Clear
1:53 PM 43.0 °F 35.7 °F 3.9 °F 20% 30.25 in 10.0 mi WSW 15.0 mph - N/A   Clear
2:53 PM 43.0 °F 36.4 °F 3.0 °F 19% 30.25 in 10.0 mi WNW 12.7 mph - N/A   Clear
3:53 PM 44.1 °F 38.6 °F 3.9 °F 19% 30.25 in 10.0 mi WSW 10.4 mph - N/A   Clear
4:53 PM 45.0 °F 41.2 °F -0.9 °F 15% 30.25 in 10.0 mi West 6.9 mph - N/A   Clear
5:53 PM 43.0 °F 38.8 °F 9.0 °F 25% 30.25 in 10.0 mi WSW 6.9 mph - N/A   Clear
6:53 PM 37.0 °F 30.4 °F 19.0 °F 48% 30.28 in 10.0 mi SSW 9.2 mph - N/A   Clear
7:53 PM 30.9 °F 24.3 °F 15.1 °F 52% 30.32 in 10.0 mi SSW 6.9 mph - N/A   Clear
8:53 PM 27.0 °F 23.0 °F 18.0 °F 69% 30.32 in 10.0 mi NW 3.5 mph - N/A   Clear
9:53 PM 24.1 °F - 17.1 °F 75% 30.35 in 10.0 mi Calm Calm - N/A   Clear
10:53 PM 27.0 °F 23.0 °F 12.0 °F 53% 30.32 in 10.0 mi East 3.5 mph - N/A   Clear
11:53 PM 25.0 °F - 14.0 °F 63% 30.33 in 10.0 mi Calm Calm - N/A   Clear